#timestamp,LO_Frequency,Hit 
1499572815.2,286047025.3,N
1499572835.9,286047028.7,N
1499572855.7,286047029.2,N
1499572875.5,286047029.2,N
1499572895.4,286047029.5,N
1499572915.2,286047030.0,N
1499572935.0,286047028.2,N
1499572935.9,286047028.2,N
1499572955.8,286047027.5,N
1499572975.6,286047031.1,N
1499572995.4,286047031.0,N
1499573015.3,286047030.4,N
1499573035.1,286047032.7,N
1499573055.8,286047034.3,N
1499573075.7,286047031.7,N
1499573095.5,286047032.4,N
1499573115.3,286047032.4,N
1499573135.2,286047031.1,N
1499573155.9,286047031.1,N
1499573175.7,286047030.8,N
1499573195.6,286047032.8,N
1499573215.4,286047030.4,N
1499573235.2,286047032.9,N
1499573255.0,286047031.8,N
1499573256.0,286047031.8,N
1499573275.8,286047032.3,N
1499573295.6,286047032.0,N
1499573315.4,286047031.9,N
1499573335.3,286047033.2,N
1499573355.1,286047032.0,N
1499573375.8,286047030.2,N
1499573395.7,286047033.2,N
1499573415.5,286047031.4,N
1499573435.3,286047031.1,N
1499573455.2,286047033.1,N
1499573475.9,286047033.2,N
1499573495.7,286047032.7,N
1499573515.6,286047030.3,N
1499573535.4,286047030.8,N
1499573555.2,286047030.6,N
1499573575.1,286047032.6,N
1499573576.0,286047032.6,N
1499573595.8,286047033.2,N
1499573615.6,286047032.6,N
1499573635.5,286047030.3,N
1499573655.3,286047031.1,N
1499573675.1,286047032.7,N
1499573695.8,286047031.9,N
1499573715.7,286047033.2,N
1499573735.5,286047032.9,N
1499573755.3,286047031.7,N
1499573775.2,286047033.5,N
1499573795.9,286047035.8,N
1499573815.7,286047037.9,N
1499573835.6,286047037.4,N
1499573855.4,286047037.8,N
1499573875.2,286047038.9,N
1499573895.1,286047037.9,N
1499573896.0,286047037.9,N
1499573915.8,286047036.9,N
1499573935.6,286047040.6,N
1499573955.5,286047039.1,N
1499573975.3,286047039.1,N
1499573995.1,286047039.3,N
1499574015.8,286047038.5,N
1499574035.7,286047038.9,N
1499574055.5,286047037.8,N
1499574075.3,286047037.2,N
1499574095.2,286047036.9,N
1499574115.0,286047035.1,N
1499574115.9,286047035.1,N
1499574135.7,286047035.3,N
1499574155.6,286047035.7,N
1499574175.4,286047036.1,N
1499574195.2,286047033.7,N
1499574215.1,286047035.2,N
1499574216.0,286047035.2,N
1499574235.8,286047038.0,N
1499574255.6,286047036.7,N
1499574275.5,286047035.6,N
1499574295.3,286047035.3,N
1499574315.1,286047037.4,N
1499574335.9,286047039.3,N
1499574355.7,286047038.5,N
1499574375.5,286047035.2,N
1499574395.3,286047037.7,N
1499574415.2,286047036.9,N
1499574435.0,286047037.2,N
1499574435.9,286047037.2,N
1499574455.7,286047039.3,N
1499574475.6,286047038.1,N
1499574495.4,286047037.8,N
1499574515.2,286047037.6,N
1499574535.1,286047037.5,N
1499574536.0,286047037.5,N
1499574555.8,286047034.9,N
1499574575.6,286047035.8,N
1499574595.5,286047036.7,N
1499574615.3,286047037.5,N
1499574635.1,286047036.8,N
1499574655.9,286047040.8,N
1499574675.7,286047039.5,N
1499574695.5,286047035.7,N
1499574715.4,286047039.1,N
1499574735.2,286047038.7,N
1499574755.0,286047038.9,N
1499574755.9,286047038.9,N
1499574775.8,286047038.2,N
1499574795.6,286047039.9,N
1499574815.4,286047041.0,N
1499574835.3,286047040.2,N
1499574855.1,286047041.9,N
1499574856.0,286047041.9,N
1499574875.8,286047039.8,N
1499574895.7,286047040.4,N
1499574915.5,286047040.4,N
1499574935.3,286047037.0,N
1499574955.1,286047040.8,N
1499574975.9,286047038.1,N
1499574995.7,286047041.0,N
1499575015.5,286047042.8,N
1499575035.4,286047040.5,N
1499575055.2,286047042.6,N
1499575075.0,286047042.7,N
1499575075.9,286047042.7,N
1499575095.8,286047041.4,N
1499575115.6,286047044.1,N
1499575135.4,286047041.3,N
1499575155.3,286047045.6,N
1499575175.1,286047045.4,N
1499575176.0,286047045.4,N
1499575195.8,286047046.0,N
1499575215.7,286047045.8,N
1499575235.5,286047043.6,N
1499575255.3,286047041.7,N
1499575275.1,286047042.7,N
1499575295.9,286047039.7,N
1499575315.7,286047039.7,N
1499575335.5,286047040.2,N
1499575355.4,286047040.2,N
1499575375.2,286047039.8,N
1499575395.0,286047042.3,N
1499575395.9,286047042.3,N
1499575415.8,286047039.8,N
1499575435.6,286047042.3,N
1499575455.4,286047041.6,N
1499575475.3,286047042.0,N
1499575495.1,286047044.4,N
1499575496.0,286047044.4,N
1499575515.8,286047042.8,N
1499575535.7,286047040.2,N
1499575555.5,286047042.8,N
1499575575.3,286047040.6,N
1499575595.2,286047038.8,N
1499575615.9,286047037.4,N
1499575635.7,286047038.7,N
1499575655.6,286047041.0,N
1499575675.4,286047040.1,N
1499575695.2,286047040.1,N
1499575715.0,286047040.1,N
1499575715.9,286047040.1,N
1499575735.8,286047040.0,N
1499575755.6,286047040.1,N
1499575775.4,286047042.6,N
1499575795.3,286047042.3,N
1499575815.1,286047040.8,N
1499575835.8,286047040.7,N
1499575855.7,286047039.8,N
1499575875.5,286047040.8,N
1499575895.3,286047036.6,N
1499575915.2,286047038.5,N
1499575935.9,286047038.7,N
1499575955.7,286047039.5,N
1499575975.6,286047037.7,N
1499575995.4,286047037.2,N
1499576015.2,286047035.3,N
1499576035.0,286047035.6,N
1499576035.9,286047035.6,N
1499576055.8,286047035.9,N
1499576075.6,286047036.2,N
1499576095.4,286047036.2,N
1499576115.3,286047035.9,N
1499576135.1,286047036.0,N
1499576155.8,286047032.0,N
1499576175.7,286047033.7,N
1499576195.5,286047033.3,N
1499576215.3,286047033.9,N
1499576235.2,286047033.3,N
1499576255.9,286047033.6,N
1499576275.7,286047033.3,N
1499576295.6,286047032.2,N
1499576315.4,286047032.1,N
1499576335.2,286047031.9,N
1499576355.1,286047032.3,N
1499576356.0,286047032.3,N
1499576375.8,286047032.0,N
1499576395.6,286047033.8,N
